�������l�o���
Date,Time,MP-1(��Sv/h),MP-2(��Sv/h),MP-3(��Sv/h),MP-4(��Sv/h),MP-5(��Sv/h),MP-6(��Sv/h),MP-7(��Sv/h),����,����(m/s),���J
2024/02/27,00:00,0.144,0.129,0.204,0.194,0.205,0.114,0.075,�k��,9.2,��
2024/02/27,00:10,0.144,0.130,0.205,0.195,0.204,0.115,0.075,�k��,8.6,��
2024/02/27,00:20,0.145,0.130,0.205,0.193,0.204,0.115,0.074,�k��,7.8,��
2024/02/27,00:30,0.145,0.129,0.204,0.194,0.203,0.115,0.074,�k�k��,6.3,��
2024/02/27,00:40,0.144,0.129,0.205,0.194,0.203,0.115,0.075,�k��,8.7,��
2024/02/27,00:50,0.145,0.130,0.204,0.194,0.204,0.114,0.075,�k��,11.1,��
2024/02/27,01:00,0.144,0.129,0.205,0.193,0.204,0.115,0.074,�k��,10.3,��
2024/02/27,01:10,0.145,0.129,0.205,0.194,0.204,0.115,0.075,�k��,9.7,��
2024/02/27,01:20,0.144,0.130,0.205,0.194,0.203,0.115,0.075,�k��,10.0,��
2024/02/27,01:30,0.144,0.129,0.205,0.193,0.203,0.115,0.076,�k��,9.5,��
2024/02/27,01:40,0.145,0.130,0.205,0.194,0.203,0.114,0.074,�k��,10.6,��
2024/02/27,01:50,0.144,0.130,0.205,0.194,0.203,0.115,0.075,�k��,7.5,��
2024/02/27,02:00,0.146,0.129,0.205,0.195,0.203,0.115,0.074,�k��,9.2,��
2024/02/27,02:10,0.144,0.129,0.205,0.194,0.203,0.115,0.075,�k�k��,8.7,��
2024/02/27,02:20,0.145,0.130,0.206,0.194,0.204,0.116,0.075,�k�k��,8.8,��
2024/02/27,02:30,0.145,0.129,0.205,0.194,0.204,0.114,0.074,�k�k��,10.9,��
2024/02/27,02:40,0.144,0.129,0.206,0.193,0.204,0.115,0.075,�k��,10.7,��
2024/02/27,02:50,0.145,0.129,0.206,0.194,0.203,0.115,0.074,�k��,9.5,��
2024/02/27,03:00,0.145,0.130,0.205,0.194,0.204,0.114,0.075,�k��,10.7,��
2024/02/27,03:10,0.145,0.129,0.206,0.194,0.204,0.116,0.074,�k��,8.7,��
2024/02/27,03:20,0.145,0.130,0.205,0.194,0.204,0.115,0.075,�k��,7.5,��
2024/02/27,03:30,0.145,0.129,0.204,0.193,0.204,0.115,0.075,�k��,10.1,��
2024/02/27,03:40,0.144,0.129,0.205,0.194,0.203,0.115,0.074,�k��,11.5,��
2024/02/27,03:50,0.146,0.129,0.206,0.195,0.204,0.115,0.076,�k��,11.2,��
2024/02/27,04:00,0.145,0.130,0.205,0.194,0.204,0.116,0.074,�k��,11.7,��
2024/02/27,04:10,0.144,0.129,0.205,0.194,0.204,0.115,0.075,�k��,11.5,��
2024/02/27,04:20,0.145,0.130,0.205,0.194,0.203,0.115,0.075,�k��,12.6,��
2024/02/27,04:30,0.146,0.129,0.205,0.194,0.203,0.115,0.075,�k��,9.6,��
2024/02/27,04:40,0.145,0.130,0.205,0.193,0.204,0.115,0.074,�k��,9.6,��
2024/02/27,04:50,0.144,0.130,0.204,0.194,0.204,0.115,0.075,�k��,10.4,��
2024/02/27,05:00,0.144,0.130,0.206,0.194,0.204,0.116,0.075,�k��,10.9,��
2024/02/27,05:10,0.145,0.130,0.204,0.193,0.203,0.114,0.075,�k��,12.0,��
2024/02/27,05:20,0.145,0.130,0.204,0.194,0.203,0.115,0.075,�k�k��,13.7,��
2024/02/27,05:30,0.145,0.130,0.206,0.194,0.204,0.115,0.074,�k��,11.5,��
2024/02/27,05:40,0.145,0.129,0.205,0.194,0.204,0.115,0.074,�k��,10.6,��
2024/02/27,05:50,0.145,0.129,0.206,0.194,0.204,0.115,0.075,�k��,12.0,��
2024/02/27,06:00,0.145,0.129,0.207,0.195,0.204,0.115,0.075,�k��,11.2,��
2024/02/27,06:10,0.145,0.130,0.205,0.194,0.202,0.115,0.075,�k�k��,10.4,��
2024/02/27,06:20,0.144,0.130,0.205,0.195,0.204,0.115,0.075,�k��,11.2,��
2024/02/27,06:30,0.145,0.130,0.207,0.195,0.203,0.115,0.075,�k��,10.6,��
2024/02/27,06:40,0.145,0.130,0.205,0.194,0.204,0.114,0.075,�k��,11.7,��
2024/02/27,06:50,0.145,0.130,0.206,0.195,0.204,0.115,0.075,���k��,10.3,��
2024/02/27,07:00,0.145,0.130,0.206,0.195,0.204,0.115,0.075,�k��,12.8,��
2024/02/27,07:10,0.144,0.131,0.206,0.194,0.203,0.115,0.075,�k��,12.5,��
2024/02/27,07:20,0.146,0.129,0.205,0.194,0.204,0.114,0.073,�k��,9.0,��
2024/02/27,07:30,0.145,0.130,0.207,0.194,0.204,0.115,0.074,�k��,9.2,��
2024/02/27,07:40,0.145,0.129,0.205,0.194,0.203,0.115,0.075,�k��,10.9,��
2024/02/27,07:50,0.146,0.128,0.204,0.194,0.204,0.115,0.074,�k��,11.5,��
2024/02/27,08:00,0.145,0.129,0.205,0.194,0.204,0.116,0.075,�k��,13.6,��
2024/02/27,08:10,0.145,0.129,0.206,0.194,0.204,0.115,0.075,�k��,12.8,��
2024/02/27,08:20,0.144,0.130,0.205,0.195,0.204,0.115,0.074,�k��,14.2,��
2024/02/27,08:30,0.145,0.130,0.205,0.194,0.205,0.116,0.074,���k��,11.2,��
2024/02/27,08:40,0.145,0.129,0.206,0.193,0.204,0.116,0.075,�k��,15.1,��
2024/02/27,08:50,0.144,0.130,0.204,0.194,0.205,0.115,0.075,�k��,14.8,��
2024/02/27,09:00,0.145,0.129,0.205,0.194,0.203,0.116,0.075,-,CALM,��
2024/02/27,09:10,0.145,0.129,0.204,0.193,0.203,0.115,0.075,�k��,16.1,��
2024/02/27,09:20,0.145,0.130,0.206,0.193,0.204,0.114,0.075,�k��,11.4,��
2024/02/27,09:30,0.145,0.129,0.206,0.194,0.206,0.116,0.075,�k��,11.7,��
2024/02/27,09:40,0.145,0.129,0.205,0.194,0.205,0.115,0.075,�k��,14.2,��
2024/02/27,09:50,0.145,0.129,0.206,0.194,0.204,0.115,0.074,�k��,14.0,�L
2024/02/27,10:00,0.146,0.130,0.206,0.194,0.205,0.115,0.074,�k�k��,17.6,�L
2024/02/27,10:10,0.146,0.130,0.205,0.195,0.205,0.116,0.075,�k��,13.7,�L
2024/02/27,10:20,0.147,0.130,0.207,0.195,0.206,0.117,0.076,�k�k��,15.1,�L
2024/02/27,10:30,0.147,0.131,0.207,0.197,0.206,0.118,0.076,�k��,13.1,�L
2024/02/27,10:40,0.148,0.133,0.208,0.195,0.208,0.118,0.077,���k��,13.4,�L
2024/02/27,10:50,0.149,0.134,0.209,0.197,0.208,0.118,0.077,�k��,11.8,�L
2024/02/27,11:00,0.149,0.133,0.208,0.197,0.207,0.118,0.078,�k��,11.8,�L
2024/02/27,11:10,0.148,0.133,0.208,0.196,0.207,0.118,0.077,�k��,10.9,�L
2024/02/27,11:20,0.148,0.132,0.207,0.197,0.206,0.118,0.077,�k��,10.3,�L
2024/02/27,11:30,0.147,0.131,0.206,0.196,0.206,0.118,0.077,�k��,9.0,��
2024/02/27,11:40,0.147,0.131,0.208,0.196,0.207,0.117,0.077,�k�k��,11.2,��
2024/02/27,11:50,0.146,0.130,0.207,0.197,0.206,0.117,0.077,�k��,12.2,�L
2024/02/27,12:00,0.146,0.131,0.206,0.196,0.206,0.117,0.077,�k��,12.8,�L
2024/02/27,12:10,0.147,0.132,0.207,0.196,0.206,0.117,0.076,�k��,11.5,�L
2024/02/27,12:20,0.147,0.131,0.207,0.197,0.206,0.117,0.076,�k�k��,10.9,�L
2024/02/27,12:30,0.147,0.131,0.206,0.195,0.206,0.116,0.076,�k��,11.2,�L
2024/02/27,12:40,0.146,0.131,0.207,0.195,0.206,0.116,0.076,�k��,11.2,��
2024/02/27,12:50,0.147,0.132,0.206,0.196,0.207,0.117,0.076,�k��,12.6,��
2024/02/27,13:00,0.146,0.131,0.206,0.195,0.207,0.117,0.077,�k��,10.4,��
2024/02/27,13:10,0.146,0.130,0.207,0.195,0.206,0.116,0.076,�k��,10.7,��
2024/02/27,13:20,0.146,0.131,0.207,0.195,0.206,0.116,0.076,�k�k��,11.7,��
2024/02/27,13:30,0.146,0.131,0.206,0.194,0.206,0.116,0.076,�k��,10.6,��
2024/02/27,13:40,0.146,0.130,0.206,0.195,0.207,0.116,0.075,�k�k��,11.2,��
2024/02/27,13:50,0.147,0.131,0.206,0.196,0.206,0.116,0.076,�k�k��,11.5,��
2024/02/27,14:00,0.145,0.130,0.205,0.195,0.205,0.116,0.076,�k��,11.5,��
2024/02/27,14:10,0.146,0.131,0.206,0.195,0.206,0.116,0.075,�k��,11.7,��
2024/02/27,14:20,0.146,0.130,0.206,0.194,0.205,0.116,0.076,�k��,12.3,��
2024/02/27,14:30,0.145,0.130,0.206,0.196,0.205,0.116,0.076,�k��,10.6,��
2024/02/27,14:40,0.145,0.130,0.206,0.195,0.205,0.116,0.075,�k��,13.1,��
2024/02/27,14:50,0.145,0.130,0.207,0.194,0.205,0.115,0.075,�k�k��,12.3,��
2024/02/27,15:00,0.146,0.130,0.205,0.194,0.204,0.114,0.074,�k��,10.9,��
2024/02/27,15:10,0.146,0.129,0.206,0.195,0.204,0.115,0.075,�k��,11.8,��
2024/02/27,15:20,0.145,0.130,0.205,0.195,0.205,0.115,0.075,�k�k��,10.6,��
2024/02/27,15:30,0.145,0.131,0.205,0.194,0.205,0.115,0.076,�k�k��,12.0,��
2024/02/27,15:40,0.145,0.131,0.206,0.194,0.205,0.115,0.075,�k��,10.4,��
2024/02/27,15:50,0.145,0.130,0.207,0.195,0.205,0.116,0.075,�k��,12.8,��
2024/02/27,16:00,0.145,0.130,0.206,0.195,0.206,0.116,0.075,�k��,9.8,��
2024/02/27,16:10,0.144,0.131,0.207,0.195,0.204,0.115,0.075,�k��,10.3,��
2024/02/27,16:20,0.145,0.130,0.206,0.196,0.205,0.116,0.075,�k��,9.8,��
2024/02/27,16:30,0.146,0.130,0.206,0.196,0.205,0.115,0.075,�k��,9.2,��
2024/02/27,16:40,0.146,0.131,0.206,0.196,0.205,0.116,0.074,�k�k��,8.7,��
2024/02/27,16:50,0.147,0.130,0.207,0.196,0.205,0.115,0.075,�k�k��,10.6,��
2024/02/27,17:00,0.146,0.130,0.206,0.195,0.204,0.115,0.075,�k�k��,9.2,��
2024/02/27,17:10,0.145,0.131,0.205,0.195,0.204,0.116,0.075,�k�k��,9.2,��
2024/02/27,17:20,0.147,0.130,0.207,0.196,0.206,0.115,0.075,�k�k��,8.7,��
2024/02/27,17:30,0.145,0.131,0.206,0.195,0.204,0.116,0.074,�k�k��,7.7,��
2024/02/27,17:40,0.146,0.130,0.206,0.195,0.205,0.115,0.075,�k�k��,8.4,��
2024/02/27,17:50,0.146,0.131,0.207,0.195,0.206,0.116,0.075,�k�k��,7.6,��
2024/02/27,18:00,0.146,0.130,0.206,0.195,0.205,0.115,0.075,�k�k��,7.3,��
2024/02/27,18:10,0.146,0.129,0.207,0.196,0.203,0.116,0.074,�k�k��,7.6,��
2024/02/27,18:20,0.146,0.131,0.205,0.195,0.204,0.115,0.075,�k�k��,8.1,��
2024/02/27,18:30,0.145,0.130,0.206,0.195,0.205,0.115,0.075,�k�k��,7.0,��
2024/02/27,18:40,0.145,0.130,0.206,0.196,0.205,0.115,0.074,�k�k��,7.4,��
2024/02/27,18:50,0.146,0.130,0.206,0.195,0.204,0.116,0.075,�k�k��,7.3,��
2024/02/27,19:00,0.145,0.131,0.206,0.194,0.204,0.116,0.075,�k,8.5,��
2024/02/27,19:10,0.145,0.131,0.207,0.196,0.205,0.116,0.075,�k�k��,7.6,��
2024/02/27,19:20,0.146,0.130,0.206,0.196,0.205,0.116,0.074,�k�k��,7.0,��
2024/02/27,19:30,0.145,0.131,0.208,0.194,0.204,0.115,0.075,�k�k��,7.7,��
2024/02/27,19:40,0.146,0.131,0.206,0.195,0.205,0.116,0.075,�k�k��,7.6,��
2024/02/27,19:50,0.146,0.131,0.206,0.195,0.205,0.116,0.074,�k�k��,6.4,��
2024/02/27,20:00,0.145,0.130,0.207,0.195,0.205,0.116,0.075,�k�k��,6.5,��
2024/02/27,20:10,0.146,0.130,0.207,0.195,0.205,0.116,0.075,�k,7.0,��
2024/02/27,20:20,0.146,0.131,0.206,0.195,0.205,0.115,0.075,�k�k��,6.9,��
2024/02/27,20:30,0.146,0.130,0.206,0.195,0.204,0.116,0.075,�k�k��,7.0,��
2024/02/27,20:40,0.145,0.131,0.207,0.195,0.205,0.116,0.074,�k�k��,7.3,��
2024/02/27,20:50,0.146,0.130,0.207,0.196,0.204,0.115,0.075,�k�k��,6.3,��
2024/02/27,21:00,0.146,0.130,0.206,0.196,0.204,0.115,0.075,�k�k��,6.5,��
2024/02/27,21:10,0.146,0.129,0.207,0.195,0.204,0.115,0.074,�k�k��,7.5,��
2024/02/27,21:20,0.145,0.130,0.207,0.195,0.204,0.116,0.074,�k�k��,6.7,��
2024/02/27,21:30,0.144,0.129,0.207,0.195,0.204,0.115,0.075,�k�k��,6.6,��
2024/02/27,21:40,0.146,0.130,0.207,0.195,0.204,0.115,0.075,�k�k��,6.2,��
2024/02/27,21:50,0.145,0.130,0.207,0.195,0.205,0.116,0.075,�k�k��,7.5,��
2024/02/27,22:00,0.146,0.130,0.206,0.195,0.204,0.115,0.075,�k��,7.1,��
2024/02/27,22:10,0.146,0.130,0.207,0.195,0.204,0.115,0.074,�k�k��,8.2,��
2024/02/27,22:20,0.145,0.130,0.206,0.195,0.205,0.115,0.075,�k��,10.6,��
2024/02/27,22:30,0.146,0.129,0.205,0.195,0.205,0.115,0.075,�k��,8.4,��
2024/02/27,22:40,0.146,0.130,0.206,0.195,0.205,0.115,0.075,�k��,7.1,��
2024/02/27,22:50,0.147,0.130,0.206,0.195,0.204,0.114,0.075,�k��,8.1,��
2024/02/27,23:00,0.146,0.130,0.207,0.196,0.204,0.115,0.074,�k�k��,7.8,��
2024/02/27,23:10,0.145,0.130,0.207,0.195,0.204,0.115,0.076,�k��,7.4,��
2024/02/27,23:20,0.146,0.129,0.206,0.194,0.205,0.116,0.075,�k��,6.0,��
2024/02/27,23:30,0.146,0.129,0.206,0.194,0.204,0.115,0.075,�k��,3.9,��
2024/02/27,23:40,0.145,0.130,0.206,0.195,0.203,0.116,0.075,�k��,3.3,��
2024/02/27,23:50,0.146,0.130,0.206,0.196,0.203,0.116,0.074,�k��,4.5,��
